| time (UTC) | temp C | wind direction | speed KPH | gust KPH | rain 1hr cm | rain 24hr cm | rain mn cm | humidity % | barometer mb |
| 20260904232516 | 30 | 45 | 3.2 | 6.4 | 0.00 | 0.00 | 0.00 | 81 | 1012.0 |
| 20260904231516 | 30 | 0 | 6.4 | 12.9 | 0.00 | 0.00 | 0.00 | 80 | 1012.0 |
| 20260904230516 | 30 | 45 | 3.2 | 6.4 | 0.00 | 0.00 | 0.00 | 81 | 1011.8 |
| 20260904225516 | 30 | 45 | 3.2 | 8.0 | 0.00 | 0.00 | 0.00 | 80 | 1011.9 |
| 20260904224516 | 30 | 23 | 4.8 | 11.3 | 0.00 | 0.00 | 0.00 | 79 | 1011.9 |
| 20260904223516 | 30 | 45 | 3.2 | 9.7 | 0.00 | 0.00 | 0.00 | 80 | 1011.8 |
| 20260904222516 | 31 | 45 | 4.8 | 14.5 | 0.00 | 0.00 | 0.00 | 79 | 1011.6 |
| 20260904221516 | 31 | 45 | 3.2 | 8.0 | 0.00 | 0.00 | 0.00 | 79 | 1011.6 |
| 20260904220516 | 31 | 23 | 3.2 | 6.4 | 0.00 | 0.00 | 0.00 | 77 | 1011.7 |
| 20260904215516 | 31 | 45 | 4.8 | 11.3 | 0.00 | 0.00 | 0.00 | 77 | 1011.7 |
| 20260904214516 | 32 | 23 | 4.8 | 14.5 | 0.00 | 0.00 | 0.00 | 76 | 1011.7 |
| 20260904213536 | 32 | 23 | 4.8 | 16.1 | 0.00 | 0.00 | 0.00 | 75 | 1011.8 |
| 20260904212556 | 32 | 23 | 4.8 | 8.0 | 0.00 | 0.00 | 0.00 | 75 | 1011.7 |
| 20260904211517 | 32 | 45 | 6.4 | 12.9 | 0.00 | 0.00 | 0.00 | 73 | 1011.8 |
| 20260904210517 | 32 | 23 | 4.8 | 12.9 | 0.00 | 0.00 | 0.00 | 74 | 1011.8 |
| 20260904205517 | 32 | 45 | 1.6 | 9.7 | 0.00 | 0.00 | 0.00 | 74 | 1011.7 |
| 20260904204516 | 32 | 23 | 6.4 | 12.9 | 0.00 | 0.00 | 0.00 | 73 | 1011.7 |
| 20260904203516 | 33 | 45 | 3.2 | 19.3 | 0.00 | 0.00 | 0.00 | 72 | 1011.9 |
| 20260904202516 | 33 | 45 | 3.2 | 6.4 | 0.00 | 0.00 | 0.00 | 68 | 1011.8 |
| 20260904201516 | 33 | 45 | 3.2 | 11.3 | 0.00 | 0.00 | 0.00 | 66 | 1011.8 |
| 20260904200516 | 33 | 45 | 1.6 | 6.4 | 0.00 | 0.00 | 0.00 | 65 | 1011.7 |
| 20260904195516 | 33 | 23 | 4.8 | 11.3 | 0.00 | 0.00 | 0.00 | 66 | 1011.8 |
| 20260904194516 | 33 | 45 | 4.8 | 11.3 | 0.00 | 0.00 | 0.00 | 66 | 1011.6 |
| 20260904193516 | 33 | 23 | 3.2 | 8.0 | 0.00 | 0.00 | 0.00 | 68 | 1011.6 |
| 20260904192516 | 33 | 45 | 3.2 | 14.5 | 0.00 | 0.00 | 0.00 | 68 | 1011.6 |
| 20260904191536 | 32 | 23 | 3.2 | 8.0 | 0.00 | 0.00 | 0.00 | 70 | 1011.5 |
| 20260904190516 | 32 | 45 | 3.2 | 6.4 | 0.00 | 0.00 | 0.00 | 68 | 1011.6 |
| 20260904185516 | 32 | 23 | 1.6 | 6.4 | 0.00 | 0.00 | 0.00 | 70 | 1011.6 |
| 20260904184516 | 32 | 0 | 4.8 | 9.7 | 0.00 | 0.00 | 0.00 | 66 | 1011.6 |
| 20260904183516 | 32 | 23 | 1.6 | 4.8 | 0.00 | 0.00 | 0.00 | 70 | 1011.7 |
| 20260904182516 | 32 | 0 | 4.8 | 8.0 | 0.00 | 0.00 | 0.00 | 71 | 1011.9 |
| 20260904181516 | 32 | 45 | 4.8 | 9.7 | 0.00 | 0.00 | 0.00 | 71 | 1011.9 |
| 20260904180516 | 32 | 158 | 4.8 | 11.3 | 0.00 | 0.00 | 0.00 | 70 | 1011.9 |
| 20260904175516 | 31 | 45 | 3.2 | 6.4 | 0.00 | 0.00 | 0.00 | 71 | 1011.9 |
| 20260904174516 | 32 | 23 | 4.8 | 12.9 | 0.00 | 0.00 | 0.00 | 71 | 1011.8 |
| 20260904173516 | 31 | 45 | 1.6 | 11.3 | 0.00 | 0.00 | 0.00 | 73 | 1011.7 |
| 20260904172536 | 31 | 0 | 1.6 | 8.0 | 0.00 | 0.00 | 0.00 | 72 | 1011.8 |
| 20260904171536 | 31 | 0 | 3.2 | 8.0 | 0.00 | 0.00 | 0.00 | 71 | 1011.8 |
| 20260904170517 | 31 | 158 | 3.2 | 6.4 | 0.00 | 0.00 | 0.00 | 75 | 1011.7 |
| 20260904165516 | 30 | 135 | 3.2 | 8.0 | 0.00 | 0.00 | 0.00 | 77 | 1011.6 |
| 20260904164516 | 30 | 158 | 1.6 | 4.8 | 0.00 | 0.00 | 0.00 | 76 | 1011.7 |
| 20260904163516 | 30 | 158 | 3.2 | 9.7 | 0.00 | 0.00 | 0.00 | 75 | 1011.5 |
| 20260904162516 | 29 | 0 | 1.6 | 6.4 | 0.00 | 0.00 | 0.00 | 77 | 1011.3 |
| 20260904161516 | 29 | 158 | 4.8 | 8.0 | 0.00 | 0.00 | 0.00 | 78 | 1011.1 |
| 20260904160516 | 28 | 0 | 1.6 | 4.8 | 0.00 | 0.03 | 0.00 | 79 | 1010.9 |
| 20260904155516 | 28 | 0 | 1.6 | 6.4 | 0.00 | 0.03 | 0.00 | 81 | 1011.0 |
| 20260904154536 | 28 | 0 | 1.6 | 4.8 | 0.00 | 0.03 | 0.00 | 82 | 1010.9 |
| 20260904153516 | 27 | 0 | 1.6 | 6.4 | 0.00 | 0.03 | 0.00 | 82 | 1010.9 |
| 20260904152516 | 27 | 0 | 1.6 | 4.8 | 0.00 | 0.03 | 0.00 | 83 | 1010.7 |
| 20260904151536 | 27 | 0 | 1.6 | 6.4 | 0.00 | 0.03 | 0.00 | 84 | 1010.7 |
| 20260904150516 | 26 | 90 | 1.6 | 4.8 | 0.00 | 0.03 | 0.00 | 86 | 1010.7 |
| 20260904145536 | 26 | 90 | 3.2 | 9.7 | 0.00 | 0.03 | 0.00 | 87 | 1010.7 |
| 20260904144516 | 26 | 90 | 1.6 | 4.8 | 0.00 | 0.03 | 0.00 | 87 | 1010.7 |
| 20260904143516 | 25 | 90 | 1.6 | 6.4 | 0.00 | 0.03 | 0.00 | 88 | 1010.8 |
| 20260904142517 | 25 | 90 | 3.2 | 6.4 | 0.00 | 0.03 | 0.00 | 89 | 1010.7 |
| 20260904141536 | 25 | 90 | 4.8 | 6.4 | 0.00 | 0.03 | 0.00 | 90 | 1010.6 |
| 20260904140517 | 24 | 90 | 4.8 | 9.7 | 0.00 | 0.03 | 0.00 | 90 | 1010.5 |
| 20260904135517 | 23 | 90 | 6.4 | 11.3 | 0.00 | 0.03 | 0.00 | 91 | 1010.5 |
| 20260904134537 | 23 | 90 | 4.8 | 9.7 | 0.00 | 0.03 | 0.00 | 92 | 1010.6 |
| 20260904133518 | 23 | 90 | 3.2 | 6.4 | 0.00 | 0.03 | 0.00 | 93 | 1010.4 |
| 20260904132518 | 23 | 90 | 3.2 | 6.4 | 0.00 | 0.03 | 0.00 | 93 | 1010.5 |
| 20260904131537 | 22 | 90 | 1.6 | 4.8 | 0.00 | 0.03 | 0.00 | 94 | 1010.3 |
| 20260904130518 | 22 | 0.0 | 4.8 | 0.00 | 0.03 | 0.00 | 95 | 1010.3 | |
| 20260904125518 | 22 | 0.0 | 0.0 | 0.00 | 0.05 | 0.00 | 95 | 1010.3 | |
| 20260904124518 | 22 | 68 | 1.6 | 3.2 | 0.00 | 0.05 | 0.00 | 96 | 1010.3 |
| 20260904123518 | 22 | 68 | 1.6 | 4.8 | 0.00 | 0.05 | 0.00 | 96 | 1010.2 |
| 20260904122517 | 22 | 68 | 3.2 | 6.4 | 0.00 | 0.05 | 0.00 | 96 | 1010.1 |
| 20260904121517 | 21 | 68 | 1.6 | 4.8 | 0.00 | 0.05 | 0.00 | 97 | 1010.1 |
| 20260904120517 | 21 | 0.0 | 1.6 | 0.00 | 0.05 | 0.00 | 96 | 1010.1 | |
| 20260904115537 | 21 | 0.0 | 0.0 | 0.00 | 0.05 | 0.00 | 96 | 1009.9 | |
| 20260904114517 | 21 | 0.0 | 3.2 | 0.00 | 0.05 | 0.00 | 96 | 1009.8 | |
| 20260904113517 | 21 | 0.0 | 0.0 | 0.00 | 0.08 | 0.00 | 96 | 1009.7 | |
| 20260904112518 | 22 | 0.0 | 0.0 | 0.00 | 0.08 | 0.00 | 96 | 1009.6 | |
| 20260904111518 | 22 | 0.0 | 0.0 | 0.00 | 0.08 | 0.00 | 96 | 1009.5 | |
| 20260904110519 | 22 | 0.0 | 0.0 | 0.00 | 0.08 | 0.00 | 96 | 1009.5 | |
| 20260904105517 | 22 | 0.0 | 0.0 | 0.00 | 0.08 | 0.00 | 95 | 1009.4 | |
| 20260904104517 | 22 | 0.0 | 0.0 | 0.00 | 0.08 | 0.00 | 95 | 1009.6 | |
| 20260904103517 | 22 | 0.0 | 0.0 | 0.00 | 0.08 | 0.00 | 94 | 1009.6 | |
| 20260904102517 | 23 | 0.0 | 0.0 | 0.00 | 0.10 | 0.00 | 94 | 1009.5 | |
| 20260904101517 | 23 | 0.0 | 0.0 | 0.00 | 0.10 | 0.00 | 93 | 1009.4 | |
| 20260904100537 | 23 | 0.0 | 0.0 | 0.00 | 0.10 | 0.00 | 93 | 1009.4 | |
| 20260904095517 | 23 | 0.0 | 1.6 | 0.00 | 0.13 | 0.00 | 93 | 1009.3 | |
| 20260904094517 | 23 | 90 | 3.2 | 4.8 | 0.00 | 0.13 | 0.00 | 93 | 1009.4 |
| 20260904093537 | 23 | 90 | 4.8 | 11.3 | 0.00 | 0.15 | 0.00 | 92 | 1009.2 |
| 20260904092518 | 23 | 90 | 6.4 | 11.3 | 0.00 | 0.18 | 0.00 | 92 | 1009.2 |
| 20260904091517 | 23 | 90 | 3.2 | 4.8 | 0.00 | 0.18 | 0.00 | 92 | 1009.2 |
| 20260904090517 | 24 | 90 | 4.8 | 9.7 | 0.00 | 0.18 | 0.00 | 91 | 1009.2 |
| 20260904085517 | 24 | 90 | 4.8 | 9.7 | 0.00 | 0.18 | 0.00 | 91 | 1009.2 |
| 20260904084517 | 24 | 90 | 6.4 | 11.3 | 0.00 | 0.18 | 0.00 | 91 | 1009.2 |
| 20260904083517 | 24 | 90 | 4.8 | 9.7 | 0.00 | 0.18 | 0.00 | 91 | 1009.0 |
| 20260904082517 | 25 | 90 | 3.2 | 6.4 | 0.00 | 0.18 | 0.00 | 91 | 1009.1 |
| 20260904081517 | 25 | 90 | 4.8 | 9.7 | 0.00 | 0.18 | 0.00 | 90 | 1009.1 |
| 20260904080537 | 25 | 90 | 6.4 | 12.9 | 0.00 | 0.18 | 0.00 | 90 | 1009.1 |
| 20260904075517 | 25 | 90 | 8.0 | 12.9 | 0.00 | 0.18 | 0.00 | 90 | 1009.2 |
| 20260904074517 | 25 | 90 | 6.4 | 11.3 | 0.00 | 0.18 | 0.00 | 91 | 1009.3 |
| 20260904073517 | 25 | 90 | 6.4 | 11.3 | 0.00 | 0.18 | 0.00 | 91 | 1009.1 |
| 20260904072517 | 25 | 90 | 6.4 | 11.3 | 0.00 | 0.18 | 0.00 | 91 | 1009.3 |
| 20260904071517 | 25 | 90 | 4.8 | 11.3 | 0.00 | 0.18 | 0.00 | 92 | 1009.2 |
| 20260904070517 | 25 | 90 | 8.0 | 14.5 | 0.00 | 0.18 | 0.00 | 92 | 1009.2 |
| 20260904065517 | 25 | 90 | 9.7 | 14.5 | 0.00 | 0.18 | 0.00 | 93 | 1009.2 |
| 20260904064517 | 25 | 90 | 6.4 | 11.3 | 0.00 | 0.18 | 0.00 | 93 | 1009.2 |
| 20260904063537 | 25 | 90 | 4.8 | 11.3 | 0.00 | 0.18 | 0.00 | 93 | 1009.2 |
| 20260904062517 | 25 | 90 | 4.8 | 14.5 | 0.00 | 0.18 | 0.00 | 93 | 1009.3 |
| 20260904061517 | 25 | 90 | 3.2 | 9.7 | 0.00 | 0.18 | 0.00 | 93 | 1009.3 |
| 20260904060517 | 25 | 90 | 4.8 | 14.5 | 0.00 | 0.18 | 0.00 | 93 | 1009.1 |
| 20260904055517 | 25 | 90 | 4.8 | 12.9 | 0.00 | 0.18 | 0.00 | 93 | 1009.1 |
| 20260904054537 | 25 | 90 | 3.2 | 11.3 | 0.00 | 0.18 | 0.00 | 93 | 1009.0 |
| 20260904053517 | 25 | 90 | 3.2 | 4.8 | 0.00 | 0.18 | 0.00 | 93 | 1009.0 |
| 20260904052517 | 25 | 90 | 4.8 | 11.3 | 0.00 | 0.18 | 0.00 | 92 | 1008.8 |
| 20260904051517 | 25 | 90 | 4.8 | 8.0 | 0.00 | 0.18 | 0.00 | 91 | 1008.8 |
| 20260904050517 | 25 | 90 | 8.0 | 11.3 | 0.00 | 0.18 | 0.00 | 91 | 1008.7 |
| 20260904045517 | 25 | 90 | 8.0 | 14.5 | 0.00 | 0.18 | 0.18 | 91 | 1008.7 |
| 20260904044517 | 25 | 90 | 6.4 | 12.9 | 0.00 | 0.18 | 0.18 | 91 | 1008.6 |
| 20260904043517 | 25 | 90 | 3.2 | 6.4 | 0.00 | 0.18 | 0.18 | 91 | 1008.6 |
| 20260904042517 | 25 | 90 | 4.8 | 11.3 | 0.00 | 0.18 | 0.18 | 91 | 1008.6 |
| 20260904041518 | 25 | 90 | 1.6 | 4.8 | 0.00 | 0.18 | 0.18 | 92 | 1008.8 |
| 20260904040537 | 25 | 90 | 3.2 | 11.3 | 0.00 | 0.18 | 0.18 | 92 | 1009.0 |
| 20260904035517 | 25 | 0.0 | 0.0 | 0.00 | 0.18 | 0.18 | 92 | 1009.0 | |
| 20260904034517 | 25 | 90 | 1.6 | 3.2 | 0.00 | 0.18 | 0.18 | 91 | 1008.8 |
| 20260904033537 | 25 | 90 | 1.6 | 4.8 | 0.00 | 0.18 | 0.18 | 90 | 1008.8 |
| 20260904032537 | 25 | 90 | 1.6 | 3.2 | 0.00 | 0.18 | 0.18 | 89 | 1008.8 |
| 20260904031517 | 25 | 90 | 1.6 | 4.8 | 0.00 | 0.18 | 0.18 | 89 | 1008.9 |
| 20260904030537 | 25 | 90 | 3.2 | 6.4 | 0.00 | 0.18 | 0.18 | 89 | 1008.7 |
| 20260904025517 | 25 | 90 | 1.6 | 6.4 | 0.00 | 0.18 | 0.18 | 89 | 1008.6 |
| 20260904024538 | 25 | 0.0 | 0.0 | 0.00 | 0.18 | 0.18 | 89 | 1008.7 | |
| 20260904023517 | 26 | 90 | 1.6 | 4.8 | 0.00 | 0.18 | 0.18 | 88 | 1008.4 |
| 20260904022517 | 26 | 90 | 4.8 | 11.3 | 0.00 | 0.18 | 0.18 | 87 | 1008.5 |
| 20260904021517 | 26 | 90 | 6.4 | 11.3 | 0.00 | 0.18 | 0.18 | 88 | 1008.4 |
| 20260904020517 | 26 | 90 | 6.4 | 9.7 | 0.00 | 0.18 | 0.18 | 89 | 1008.4 |
| 20260904015517 | 26 | 90 | 3.2 | 6.4 | 0.00 | 0.18 | 0.18 | 89 | 1008.2 |
| 20260904014517 | 26 | 90 | 1.6 | 3.2 | 0.00 | 0.18 | 0.18 | 88 | 1008.0 |
| 20260904013537 | 26 | 90 | 3.2 | 9.7 | 0.00 | 0.18 | 0.18 | 89 | 1007.9 |
| 20260904012557 | 26 | 90 | 1.6 | 4.8 | 0.00 | 0.18 | 0.18 | 89 | 1007.8 |
| 20260904011516 | 26 | 90 | 1.6 | 4.8 | 0.00 | 0.18 | 0.18 | 88 | 1007.6 |
| 20260904010517 | 26 | 90 | 4.8 | 12.9 | 0.00 | 0.18 | 0.18 | 87 | 1007.4 |
| 20260904005517 | 26 | 68 | 1.6 | 4.8 | 0.00 | 0.18 | 0.18 | 88 | 1007.2 |
| 20260904004517 | 27 | 68 | 1.6 | 6.4 | 0.00 | 0.18 | 0.18 | 87 | 1007.3 |
| 20260904003517 | 27 | 68 | 1.6 | 4.8 | 0.00 | 0.18 | 0.18 | 86 | 1007.3 |
| 20260904002517 | 27 | 68 | 1.6 | 4.8 | 0.00 | 0.18 | 0.18 | 86 | 1007.4 |
| 20260904001517 | 27 | 90 | 3.2 | 6.4 | 0.00 | 0.18 | 0.18 | 86 | 1007.4 |
| 20260904000557 | 27 | 90 | 3.2 | 11.3 | 0.00 | 0.18 | 0.18 | 84 | 1007.2 |
| 20260903235517 | 27 | 68 | 3.2 | 8.0 | 0.00 | 0.18 | 0.18 | 84 | 1007.4 |
| 20260903234517 | 28 | 68 | 1.6 | 4.8 | 0.00 | 0.18 | 0.18 | 82 | 1007.1 |
| 20260903233517 | 28 | 68 | 3.2 | 6.4 | 0.00 | 0.18 | 0.18 | 81 | 1006.6 |